Weather Roundup
Issued by NWS

Home | Current Version | Previous Version | Text Only | Print | Product List | Glossary On
Versions: 1 2 3 4 5 6 7 8 9 10 11 12 13 14 15 16 17 18 19 20 21 22 23 24 25 26 27 28 29 30 31 32 33 34 35 36 37 38 39 40 41 42 43 44 45 46 47 48 49 50
000
NZUS93 KARX 030210
HRRWXR

CURRENT HOURLY OBSERVATIONS ACROSS
MUCH OF THE UPPER MISSISSIPPI VALLEY
NATIONAL WEATHER SERVICE LA CROSSE WI
900 PM CDT MON MAY 02 2016


...SOUTHEAST MINNESOTA...


CITY           SKY/WX    TMP DP  RH WIND       PRES   REMARKS
ROCHESTER      PTCLDY    53  44  71 SW7       30.03R
ROCHESTER/MAYO FAIR      59  36  41 SW7       30.02S
WINONA         MOCLDY    54  41  62 CALM      30.02S
AUSTIN         CLOUDY    55  39  54 CALM      30.03R
ALBERT LEA     PTCLDY    55  39  54 CALM      30.03R
DODGE CENTER   MOCLDY    52  37  58 SW5       30.02S
PRESTON        CLEAR     55  37  51 SW5       30.04R
OWATONNA       PTCLDY    55  37  50 CALM      30.02R
FARIBAULT      CLEAR     54  37  54 CALM      30.02R
$$

...ELSEWHERE IN MINNESOTA...


CITY           SKY/WX    TMP DP  RH WIND       PRES   REMARKS
MINNEAPOLIS    PTCLDY    61  28  28 CALM      30.00S
INTNL FALLS    CLEAR     52  33  48 CALM      29.93S
DULUTH         PTCLDY    56  30  37 S3        29.97S
RED WING       MOCLDY    55  41  58 CALM      30.00S
REDWOOD FALLS  CLEAR     60  32  34 SW5       30.00R
MANKATO        CLEAR     59  34  38 S5        30.02R
WORTHINGTON    CLEAR     55  42  61 S5        30.02S
FAIRMONT       CLEAR     57  36  44 S5        30.02S
$$

...SOUTHWEST WISCONSIN...


CITY           SKY/WX    TMP DP  RH WIND       PRES   REMARKS
LA CROSSE      CLOUDY    57  39  51 S3        30.01S
PRAIRIE DU CHI CLOUDY    53  41  63 CALM      30.02S
BOSCOBEL       MOCLDY    54  41  61 CALM      30.02S
LONE ROCK      CLOUDY    54  45  71 CALM      30.02R
PLATTEVILLE    PTCLDY    54  40  60 SW3       30.02S
FORT MC COY    CLOUDY    53  40  63 CALM      30.03R
MAUSTON-NEW LI CLOUDY    53  41  64 CALM      30.00S
VIROQUA        CLOUDY    56  35  43 CALM      30.03R
WIS DELLS      CLOUDY    55  38  53 S3        30.01R
$$

...ELSEWHERE IN WISCONSIN...


CITY           SKY/WX    TMP DP  RH WIND       PRES   REMARKS
MILWAUKEE      PTCLDY    47  33  58 CALM      30.03S
MADISON        PTCLDY    50  36  58 CALM      30.01S
GREEN BAY      CLEAR     54  36  50 S5        30.00S
EAU CLAIRE     MOCLDY    57  35  43 SW3       30.00S
BLACK RVR FLS  CLOUDY    51  39  65 CALM      30.01R
MEDFORD        PTCLDY    51  37  60 CALM      30.00S
WAUSAU         MOCLDY    58  34  40 W5        29.98S
WIS RAPIDS     CLEAR     51  33  50 CALM      30.02R
MARSHFIELD     CLEAR     54  34  46 CALM      30.00S
RICE LAKE      CLEAR     56  34  43 S3        30.01S
$$

...NORTHEAST IOWA...


CITY           SKY/WX    TMP DP  RH WIND       PRES   REMARKS
WATERLOO       CLEAR     52  40  63 S3        30.03S
DUBUQUE        CLOUDY    52  42  69 SW3       30.03S
DECORAH        MOCLDY    57  37  47 CALM      30.02S
MASON CITY     CLEAR     52  42  69 S5        30.04S
CHARLES CITY   MOCLDY    55  41  58 S3        30.04S
OELWEIN        PTCLDY    52  43  71 SW6       30.04S
$$

...ELSEWHERE IN IOWA...


CITY           SKY/WX    TMP DP  RH WIND       PRES   REMARKS
DES MOINES     PTCLDY    55  42  61 SE5       30.05S
IOWA CITY      CLOUDY    53  45  74 CALM      30.05S
FORT DODGE     CLEAR     50  37  62 CALM      30.04S
MARSHALLTOWN   CLEAR     53  42  66 S3        30.04S
CEDAR RAPIDS   CLOUDY    51  46  83 W3        30.03S
$$

...NORTHERN ILLINOIS...


CITY           SKY/WX    TMP DP  RH WIND       PRES   REMARKS
CHICAGO-OHARE  PTCLDY    50  33  52 N6        30.01S
CHICAGO-MIDWAY PTCLDY    51  32  48 N6        30.02S
MOLINE         CLOUDY    54  45  71 W5        30.02F
ROCKFORD       PTCLDY    55  39  54 CALM      30.04S
PEORIA         CLOUDY    54  45  71 NW5       30.01S
$$

NOTE: "FAIR" INDICATES FEW OR NO CLOUDS BELOW 12,000 FEET WITH NO
SIGNIFICANT WEATHER AND/OR OBSTRUCTIONS TO VISIBILITY. WIND
SPEEDS ARE IN MILES-PER-HOUR.




USA.gov is the U.S. government's official web portal to all federal, state and local government web resources and services.